[Date Prev][Date Next][Thread Prev][Thread Next] - [Date Index][Thread Index][Author Index]

2 Line ISS Keps 1-16



ISS
1 25544U 98067A   05016.36486696  .00071046  00000-0  58079-3 0  5996
2 25544  51.6475 317.1075 0009347 354.3180 149.9243 15.69846570351812
----
Via the sarex mailing list at AMSAT.ORG courtesy of AMSAT-NA.
To unsubscribe, send "unsubscribe sarex" to Majordomo@amsat.org



AMSAT Top AMSAT Home